Charlottetown, Prince Edward Island

1:20 PM AST on December 15, 2017 (GMT -0400)
Charlottetown

Weather History for CYYG - August, 2013

Change the Weather History Date:

Saturday, August 24, 2013

  Actual Average Record
Temperature  
Mean Temperature 56 °F -  
Max Temperature 64 °F 66 °F 77 °F (1999)
Min Temperature 46 °F 50 °F 46 °F (2003)
Degree Days  
Heating Degree Days 8    
Growing Degree Days 6 (Base 50)    
Moisture  
Dew Point 49 °F    
Average Humidity 72    
Maximum Humidity 100    
Minimum Humidity 49    
Precipitation  
Precipitation 0.00 in 0.12 in - ()
Sea Level Pressure  
Sea Level Pressure 30.16 in    
Wind  
Wind Speed 6 mph ()    
Max Wind Speed 15 mph    
Max Gust Speed 22 mph    
Visibility 15.0 miles    
Events      
Averages and records for this station are not official NWS values.
T = Trace of Precipitation, MM = Missing Value Source: Averaged Metar Reports

Daily Weather History Graph

Daily Weather History Graph

Search for Another Location

Airport or City:

Trip Planner

Search our weather history database for the weather conditions in past years. The results will help you decide how hot, cold, wet, or windy it might be!

Date:

Astronomy

Aug. 24, 2013 Rise Set
Actual Time 6:22 AM ADT 8:05 PM ADT
Civil Twilight 5:51 AM ADT 8:37 PM ADT
Nautical Twilight 5:12 AM ADT 9:16 PM ADT
Astronomical Twilight 4:29 AM ADT 9:58 PM ADT
Moon 9:38 PM ADT (8/24) 10:35 AM ADT (8/24)
Length of Visible Light 14h 46m
Length of Day
13h 42m
Waning Gibbous, 85% of the Moon is Illuminated
Aug 24
Waning Gibbous
Aug 28
Last Quarter
Sep 5
New
Sep 12
First Quarter
Sep 19
Full

Hourly Weather History & Observations

Time (ADT) Temp. Dew Point Humidity Pressure Visibility Wind Dir Wind Speed Gust Speed Precip Events Conditions
12:00 AM 57.2 °F 51.8 °F 82% 30.03 in 15.0 mi WNW 2.3 mph - N/A   Scattered Clouds
1:00 AM 57.2 °F 53.6 °F 88% 30.04 in 15.0 mi West 4.6 mph - N/A   Scattered Clouds
2:00 AM 57.2 °F 53.6 °F 88% 30.04 in 15.0 mi NNW 3.5 mph - N/A   Mostly Cloudy
3:00 AM 54 °F 51 °F 88% 30.06 in 15 mi NW 3.5 mph - -   Partly Cloudy
3:00 AM 53.6 °F 51.8 °F 94% 30.06 in 15.0 mi NW 4.6 mph - N/A   Scattered Clouds
4:00 AM 53.6 °F 48.2 °F 82% 30.06 in 15.0 mi WNW 4.6 mph - N/A   Partly Cloudy
5:00 AM 53.6 °F 44.6 °F 72% 30.07 in 15.0 mi WNW 4.6 mph - N/A   Scattered Clouds
6:00 AM 53.6 °F 46.4 °F 77% 30.08 in 15.0 mi WNW 4.6 mph - N/A   Partly Cloudy
7:00 AM 53.6 °F 46.4 °F 77% 30.11 in 15.0 mi WNW 5.8 mph - N/A   Scattered Clouds
8:00 AM 57.2 °F 50.0 °F 77% 30.13 in 15.0 mi NW 5.8 mph - N/A   Partly Cloudy
9:00 AM 61 °F 51 °F 62% 30.15 in 15 mi North 9.2 mph - -   Scattered Clouds
9:00 AM 60.8 °F 51.8 °F 72% 30.15 in 15.0 mi NNW 8.1 mph - N/A   Scattered Clouds
10:00 AM 64.4 °F 50.0 °F 59% 30.17 in 15.0 mi NNW 15.0 mph 20.7 mph N/A   Scattered Clouds
11:00 AM 62.6 °F 48.2 °F 59% 30.20 in 15.0 mi North 11.5 mph 21.9 mph N/A   Mostly Cloudy
12:00 PM 62.6 °F 48.2 °F 59% 30.20 in 15.0 mi NNW 12.7 mph 20.7 mph N/A   Mostly Cloudy
1:00 PM 64.4 °F 50.0 °F 59% 30.20 in 15.0 mi NNW 12.7 mph 21.9 mph N/A   Scattered Clouds
2:00 PM 64.4 °F 48.2 °F 56% 30.20 in 15.0 mi North 13.8 mph 19.6 mph N/A   Partly Cloudy
3:00 PM 64 °F 50 °F 49% 30.21 in 15 mi NNW 12.7 mph - -   Scattered Clouds
3:00 PM 64.4 °F 50.0 °F 59% 30.21 in 15.0 mi NNW 11.5 mph 19.6 mph N/A   Partly Cloudy
4:00 PM 64.4 °F 48.2 °F 56% 30.21 in 15.0 mi North 13.8 mph 19.6 mph N/A   Partly Cloudy
5:00 PM 64.4 °F 48.2 °F 56% 30.21 in 15.0 mi North 10.4 mph 18.4 mph N/A   Partly Cloudy
6:00 PM 62.6 °F 48.2 °F 59% 30.22 in 15.0 mi North 9.2 mph - N/A   Partly Cloudy
7:00 PM 62.6 °F 46.4 °F 55% 30.22 in 15.0 mi NNW 4.6 mph - N/A   Partly Cloudy
8:00 PM 57.2 °F 48.2 °F 72% 30.23 in 15.0 mi North 3.5 mph - N/A   Partly Cloudy
9:00 PM 49 °F 47 °F 88% 30.24 in 15 mi NW 3.5 mph - -   Clear
9:00 PM 50.0 °F 46.4 °F 87% 30.24 in 15.0 mi NW 3.5 mph - N/A   Partly Cloudy
10:00 PM 50.0 °F 46.4 °F 87% 30.25 in 15.0 mi NNW 3.5 mph - N/A   Partly Cloudy
11:00 PM 46.4 °F 46.4 °F 100% 30.26 in 15.0 mi NW 2.3 mph - N/A   Partly Cloudy